Location: Raleigh
(35.7720°N, 78.6390°W)
Time: 20:21:21
(UTC-05:00)

JAS-2 - Visible Passes

Search period start: 27 January 2015 00:00
Search period end: 06 February 2015 00:00
Orbit: 799 x 1322 km, 98.5° (Epoch: 27 January)

Date Brightness Start Highest point End Pass type
(mag) Time Alt. Az. Time Alt. Az. Time Alt. Az.
27 Jan 11.7 03:54:34 10° NE 03:58:32 20° E 04:03:04 10° SE visible
27 Jan 9.5 05:38:25 10° N 05:43:53 52° WNW 05:49:58 10° SSW visible
28 Jan 10.1 04:43:17 10° NNE 04:48:53 55° E 04:55:13 10° S visible
28 Jan 10.6 06:29:42 10° NNW 06:33:47 20° WNW 06:37:55 10° WSW visible
29 Jan 11.8 03:49:43 10° NE 03:53:35 19° E 03:58:00 10° SE visible
29 Jan 9.5 05:33:21 10° N 05:38:58 56° WNW 05:45:15 10° SSW visible
30 Jan 10.2 04:38:18 10° NNE 04:43:57 51° E 04:50:21 10° S visible
30 Jan 10.5 06:24:30 10° NNW 06:28:53 22° WNW 06:33:24 10° WSW visible
31 Jan 11.9 03:44:54 10° NE 03:48:38 17° E 03:52:57 10° SE visible
31 Jan 9.5 05:28:18 10° N 05:34:02 62° WNW 05:40:31 10° SSW visible
01 Feb 10.4 04:33:19 10° NNE 04:39:02 48° E 04:45:30 10° S visible
01 Feb 10.5 06:19:19 10° NNW 06:23:59 24° WNW 06:28:51 10° WSW visible
02 Feb 12.0 03:40:06 10° NE 03:43:41 16° E 03:47:51 10° SE visible
02 Feb 9.5 05:23:15 10° N 05:29:08 67° WNW 05:35:48 10° SSW visible
03 Feb 10.6 04:28:22 10° NNE 04:34:07 45° E 04:40:38 10° S visible
03 Feb 10.4 06:14:09 10° NNW 06:19:05 26° WNW 06:24:18 10° WSW visible
04 Feb 12.1 03:35:20 10° ENE 03:38:44 16° E 03:42:44 10° SE visible
04 Feb 9.5 05:18:12 10° N 05:24:14 72° WNW 05:31:04 10° SSW visible
05 Feb 10.7 04:23:25 10° NNE 04:29:13 42° E 04:35:46 10° S visible
05 Feb 10.4 06:09:00 10° NNW 06:14:11 29° WNW 06:19:45 10° SW visible
